Regional Weather Roundup
Issued by NWS

Home | Current Version | Previous Version | Graphics & Text | Print | Product List | Glossary On
Versions: 1 2 3 4 5 6 7 8 9 10 11 12 13 14 15 16 17 18 19 20 21 22 23 24 25 26 27 28 29 30 31 32 33 34 35 36 37 38 39 40 41 42 43 44 45 46 47 48 49 50
000
ASUS43 KMKX 291121
RWRWI

WISCONSIN REGIONAL WEATHER ROUNDUP
NATIONAL WEATHER SERVICE MILWAUKEE/SULLIVAN WI
500 AM CST MON DEC 29 2014

NOTE: "FAIR" INDICATES FEW OR NO CLOUDS BELOW 12,000 FEET WITH NO
SIGNIFICANT WEATHER AND/OR OBSTRUCTIONS TO VISIBILITY.

WIZ001-002-006>008-014>016-023>028-291200-
NORTHWEST WISCONSIN

CITY           SKY/WX    TMP DP  RH WIND       PRES   REMARKS
SUPERIOR ARPT  CLEAR     -2  -8  74 NW5       30.49R WCI -12
ASHLAND        CLOUDY     2  -2  83 W6        30.43R WCI  -9
HAYWARD        MOCLDY   -12 -17  78 CALM      30.39S
SIREN          CLEAR     -3  -8  82 NW3       30.44S
CUMBERLAND     PTCLDY     0  -8  71 N9        30.38R WCI -16
RICE LAKE      PTCLDY     0  -6  75 N3        30.41S
CHETEK         PTCLDY    -2  -6  83 CALM      30.40S
LADYSMITH      PTCLDY    -4  -8  82 NW7       30.38S WCI -18
EAU CLAIRE     MOCLDY     1  -6  72 CALM      30.40S
MENOMONIE      PTCLDY     4  -4  71 NW6       30.42R WCI  -7
NEW RICHMOND   MOCLDY     2  -5  73 N6        30.43R WCI  -9
OSCEOLA        PTCLDY     2  -4  75 N5        30.47R WCI  -8
$$

WIZ003>005-009-010-017-018-291200-
NORTH CENTRAL WISCONSIN

CITY           SKY/WX    TMP DP  RH WIND       PRES   REMARKS
MANITOWISH WTR FLURRIES  -2  -5  86 CALM      30.30R
ARBOR VITAE    LGT SNOW   1  -3  83 NW5       30.29S WCI  -8
WOODRUFF       LGT SNOW   1  -3  83 NW5       30.29S WCI  -8
RHINELANDER    PTCLDY    -3  -6  87 NW5       30.29S WCI -13
EAGLE RIVER    CLOUDY    -1  -6  80 CALM      30.28R
LAND O LAKES   LGT SNOW   5   1  86 W3        30.27R
PHILLIPS       CLEAR    -16 -21  80 CALM      30.33S
TOMAHAWK       PTCLDY   -11 -16  79 CALM      30.32S
MEDFORD        PTCLDY   N/A N/A N/A N3        30.32R
MERRILL        PTCLDY    -5  -8  85 CALM      30.32S
$$

WIZ029-030-035-036-043>047-291200-
CENTRAL WISCONSIN

CITY           SKY/WX    TMP DP  RH WIND       PRES   REMARKS
WAUSAU         MOCLDY     1  -3  83 W5        30.33R WCI  -9
MOSINEE        CLOUDY     3   1  92 CALM      30.34R
MARSHFIELD     MOCLDY     5   0  79 N6        30.34S WCI  -6
STEVENS POINT  CLOUDY     6   1  83 N5        30.35S WCI  -3
WAUPACA        MOCLDY    14   7  73 NW7       30.36F WCI   4
WAUTOMA        CLOUDY    14   7  74 N6        30.36S WCI   5
WISC RAPIDS    CLOUDY    10   3  73 N8        30.37R WCI  -2
CAMP DOUGLAS   MOCLDY    12  11  93 NW5       30.37R WCI   5
$$

WIZ011>013-019>022-031-037>040-048>050-291200-
NORTHEAST WISCONSIN

CITY           SKY/WX    TMP DP  RH WIND       PRES   REMARKS
ANTIGO         MOCLDY    -2  -5  87 NW6       30.29S WCI -14
SHAWANO        PTCLDY    11   6  79 W5        30.36S WCI   3
OCONTO         PTCLDY    12   6  76 NW6       30.36R WCI   3
STURGEON BAY   PTCLDY    16   7  67 NW12      30.35R WCI   3
GREEN BAY      PTCLDY    15   8  73 NW9       30.35S WCI   3
MANITOWOC      MOCLDY    17  10  74 NW8       30.34R WCI   7
APPLETON       NOT AVBL
CLINTONVILLE   MOCLDY    12   5  73 NW6       30.36R WCI   3
OSHKOSH        CLOUDY    16   6  65 N10       30.33S WCI   4
$$

WIZ032>034-041-042-053>061-291200-
SOUTHWEST WISCONSIN

CITY           SKY/WX    TMP DP  RH WIND       PRES   REMARKS
LA CROSSE      PTCLDY    14   8  77 N10       30.40R WCI   1
SPARTA         MOCLDY    12   8  82 N6        30.40R WCI   3
VIROQUA        CLOUDY    15  12  88 N9        30.32R WCI   4
BOSCOBEL       CLOUDY    21  12  68 N6        30.35R WCI  13
PRAIRIE DU CHI MOCLDY    22  13  67 N6        30.34S WCI  14
PLATTEVILLE    CLOUDY    22  16  78 CALM      30.31R
$$

WIZ056-057-062-063-064-067-068-291200-
SOUTH CENTRAL WISCONSIN

CITY           SKY/WX    TMP DP  RH WIND       PRES   REMARKS
REEDSBURG      CLOUDY    16  10  78 N6        30.34R WCI   8
BARABOO/DELLS  CLOUDY    17  11  80 N3        30.34R
LONE ROCK      CLOUDY    24  13  62 N8        30.35R WCI  15
MINERAL POINT  CLOUDY    23  14  68 NE9       30.29R WCI  13
MADISON        CLOUDY    19  13  77 N9        30.32S WCI   8
MIDDLETON      CLOUDY    21  14  73 N9        30.32S WCI  11
WATERTOWN      MOCLDY    19  16  90 N7        30.31S WCI   9
MONROE         CLOUDY    23  19  86 N10       30.29R WCI  12
JANESVILLE     CLOUDY    27  19  74 N3        30.30S
$$

WIZ051-052-058>065-066-070>072-291200-
SOUTHEAST WISCONSIN

CITY           SKY/WX    TMP DP  RH WIND       PRES   REMARKS
MILWAUKEE      MOCLDY    23  15  71 N8        30.31R WCI  14
WAUKESHA       PTCLDY    19  14  79 N5        30.31R WCI  13
MILWAUKEE/TIMM MOCLDY    21  14  73 N6        30.32R WCI  14
RACINE         MOCLDY    24  17  74 NW7       30.31S WCI  16
BURLINGTON     PTCLDY    21  17  83 N6        30.30R WCI  14
KENOSHA        MOCLDY    24  18  77 N8        30.29S WCI  15
FOND DU LAC    CLOUDY    17   6  62 N12       30.33R WCI   4
SHEBOYGAN      MOCLDY    17   7  64 N8        30.32S WCI   7
WEST BEND      MOCLDY    19  10  68 N6        30.32R WCI  11
JUNEAU         CLOUDY    17  11  79 N6        30.33R WCI   8
$$

LSZ147-162-291200-
LAKE SUPERIOR

STATION/POSITION TIME  TEMP    WIND        PRES    WAVE
                       AIR SEA DIR/SP/G            HT/PER
                 (UTC) (F)     (DEG/KT/KT) (MB)    (FT/S)
DEVILS ISLAND    1100    6     320/ 12/ 16 1032.3R
PORT WING        1000    6     320/ 10/ 14 1031.2R
SAXON HARBOR     1040    7     230/  4/  9 1029.8R
$$

LMZ867-665-643>646-291200-
LAKE MICHIGAN

STATION/POSITION TIME  TEMP    WIND        PRES    WAVE
                       AIR SEA DIR/SP/G            HT/PER
                 (UTC) (F)     (DEG/KT/KT) (MB)    (FT/S)
CHAMBERS ISLAND  1000   13     270/  6/ 10 1027.1R
NORTHPORT PIER   1112   16     310/ 11/ 17 1027.1R
SISTER BAY       1013          320/ 16/ 18   N/A
ALGOMA LAKESHORE 1045          350/  8/ 10   N/A
KEWAUNEE LAKESHO 1000   16     310/  3/  7 1026.4R
SHEBOYGAN LAKESH 1100   18 36  320/  9/ 11 1028.4R
PORT WASHINGTON  1040   20     360/  4/  8 1027.8R
MILWAUKEE LAKESH 1100   23     330/  9/ 12   N/A
KENOSHA   LAKESH 1100   27     350/ 13/ 18 1025.4S
$$

TC  - TEMPERATURE IN CELSIUS
VSB - VISIBILITY IN STATUTE MILES
WCI - WIND CHILL INDEX
HX  - HEAT INDEX



USA.gov is the U.S. government's official web portal to all federal, state and local government web resources and services.